ECMWFFLT2_500_spd_096.txt.gz
Wind_Speed
28 28 30 35 35 36 41 43 48 50 44 40 35 29 30 32 32 31 32 34 31 29 28 26 23 20 18 18 20 20 18 16 15 16 17 18 19 19 20 22 23 22 21 20 20 21 20 19 20 20 18 18 17 16 15 15 16 17 17 17 16 16 17
30 32 32 34 33 34 38 39 43 48 46 43 39 32 28 31 33 35 37 36 33 31 30 29 25 21 19 18 20 22 21 19 17 17 18 19 19 20 21 21 22 21 21 21 21 21 21 20 21 22 22 21 20 18 17 16 16 17 18 17 16 15 15
30 31 30 31 31 32 35 34 38 45 45 44 43 36 29 30 34 36 38 37 35 33 31 29 27 26 23 22 21 21 21 20 19 18 18 19 20 20 20 19 21 22 22 23 24 24 24 25 25 25 26 25 23 22 20 18 17 17 17 17 16 15 15
30 27 25 26 27 29 32 33 37 44 45 41 40 38 32 31 34 35 36 38 36 33 31 30 30 30 28 28 26 23 21 20 20 21 21 21 21 20 18 18 21 23 24 25 25 24 25 27 26 25 25 26 24 22 19 18 18 18 18 18 17 17 17
33 29 26 25 24 26 29 33 39 44 45 41 38 38 35 33 33 33 34 35 34 32 33 34 34 33 31 29 27 24 22 22 22 22 22 21 21 20 20 21 23 24 24 22 20 20 22 23 23 23 24 25 25 22 19 19 20 20 19 18 18 19 20
34 29 28 29 28 29 32 35 41 45 44 41 39 38 37 36 36 33 32 34 32 32 34 35 35 35 32 29 28 26 23 22 23 23 21 20 19 19 22 25 27 26 23 20 19 19 20 20 21 23 25 26 27 27 25 24 24 24 22 20 19 19 20
34 28 27 30 31 32 34 37 42 47 44 39 39 40 39 39 38 34 32 34 34 33 34 34 33 33 31 29 30 30 27 23 23 23 22 21 20 20 22 25 28 30 26 23 23 21 18 18 20 22 24 26 29 29 27 26 27 27 26 24 22 21 20
34 30 28 34 37 35 36 38 39 45 45 40 40 42 41 41 41 37 34 34 35 35 35 32 29 28 29 32 32 29 28 25 23 24 23 22 22 21 22 24 27 30 26 23 24 24 21 19 20 20 21 23 24 25 26 27 28 29 29 27 25 23 21
34 31 31 37 41 39 39 39 39 44 46 43 42 43 42 42 42 39 36 34 34 36 35 30 28 25 27 33 33 26 23 22 22 24 25 23 23 23 23 24 24 26 23 20 20 22 21 19 17 17 17 16 16 19 23 27 29 31 31 29 27 25 23
36 34 35 40 43 42 41 39 39 41 43 44 45 44 43 43 42 39 37 35 36 37 35 31 30 27 24 28 30 25 22 22 22 23 24 25 25 24 24 25 24 24 23 21 20 21 22 20 16 16 16 14 14 16 20 25 28 31 31 30 29 27 24
39 36 38 43 46 44 40 38 39 37 37 42 47 47 46 45 42 40 38 37 36 38 37 34 33 29 25 25 27 25 24 25 24 23 24 25 26 26 25 25 25 24 24 23 22 23 24 21 17 17 18 16 15 14 15 20 24 27 28 28 28 27 25
37 37 40 46 48 45 40 38 40 39 36 38 44 47 49 49 44 40 40 39 37 36 37 36 34 31 27 25 25 25 25 25 26 25 25 24 25 26 27 26 25 25 25 24 23 24 24 21 18 19 18 16 15 14 14 15 16 20 25 27 27 27 27
36 35 38 46 50 47 41 38 40 42 38 36 40 44 47 50 47 41 40 40 37 36 37 37 36 33 29 27 27 27 26 25 26 26 25 24 23 24 26 26 26 26 26 25 24 24 24 22 21 20 18 16 16 14 12 11 10 13 18 24 28 28 28
39 38 37 41 45 46 44 40 39 42 41 38 37 38 41 47 49 45 42 41 40 38 37 39 39 35 28 25 26 27 25 25 24 24 24 24 22 22 23 25 26 27 26 26 26 25 25 24 23 20 17 15 15 14 10 8 9 10 13 19 25 28 28
41 42 41 41 43 46 48 46 42 42 44 42 39 38 39 43 47 49 47 45 43 42 40 39 39 36 31 25 22 22 21 20 21 22 23 23 23 23 23 25 26 27 27 27 26 26 27 26 26 25 21 17 15 15 13 10 9 10 12 15 21 26 27
42 43 42 43 47 49 50 49 47 46 47 45 41 41 41 41 42 46 48 46 45 44 43 42 41 39 35 31 28 24 22 20 19 20 22 23 23 24 25 26 26 27 28 28 27 27 27 27 27 27 26 23 20 18 18 16 14 12 11 13 16 21 23
45 43 41 43 46 47 45 44 44 46 49 47 42 39 40 41 40 41 43 44 44 45 44 45 44 41 38 37 36 33 30 28 24 21 21 24 25 26 26 27 27 28 28 29 29 29 28 28 28 27 26 26 24 22 22 22 20 16 13 13 14 15 16
43 43 43 42 43 42 40 39 41 45 48 48 45 40 38 40 42 42 41 40 43 45 45 46 46 43 38 35 33 30 28 29 28 25 23 24 26 27 28 29 29 29 29 30 30 30 30 30 30 29 28 26 25 25 25 25 25 21 18 17 16 14 15
38 39 41 39 37 37 38 37 39 44 46 44 44 43 40 38 40 42 42 41 41 42 43 44 45 45 42 37 33 29 26 26 27 27 25 24 25 27 28 29 30 31 31 31 31 32 32 32 32 31 30 29 27 27 27 28 28 27 24 22 19 17 17
34 35 37 35 32 33 35 34 33 40 45 44 43 44 43 42 41 42 44 44 42 43 43 41 39 39 41 41 38 35 31 28 27 27 27 26 25 25 26 27 28 30 31 32 32 32 33 33 34 34 33 32 30 29 29 29 30 31 30 27 24 22 20
32 34 36 36 35 34 34 32 29 33 41 46 46 43 42 45 44 43 46 49 47 46 46 45 42 38 37 39 40 38 34 30 27 26 26 26 26 25 25 26 27 28 30 31 32 33 33 34 34 35 35 35 34 32 32 31 31 32 32 31 29 27 26
32 33 34 37 39 39 36 33 30 29 33 41 46 44 43 46 44 40 42 50 55 54 50 49 49 46 41 39 40 40 35 31 29 28 27 27 27 26 27 27 27 28 29 30 30 32 33 34 35 36 36 36 36 35 34 34 34 34 34 33 32 30 29
32 33 34 36 40 42 41 35 30 30 33 37 43 46 47 49 49 42 35 37 46 54 54 51 49 48 45 39 36 36 34 32 32 32 32 32 32 32 32 31 31 32 32 32 32 32 33 34 34 35 36 36 37 36 36 36 36 35 36 35 34 33 32
28 32 35 37 40 42 43 38 31 31 35 36 40 46 49 50 51 50 42 33 33 39 45 48 46 46 46 44 39 36 34 32 32 32 33 34 35 36 36 36 36 36 36 36 35 35 35 35 35 35 35 35 36 37 37 37 37 37 37 37 37 36 35
22 28 33 38 40 41 41 38 33 33 36 38 41 45 48 48 49 51 50 45 40 38 41 46 47 46 47 48 48 45 41 37 34 32 32 33 35 37 37 37 38 38 38 39 38 37 37 37 37 37 36 36 36 37 38 38 38 38 39 39 39 38 38
21 23 28 33 38 40 40 37 34 34 35 37 40 43 45 46 48 49 50 49 46 43 42 45 47 47 47 48 49 49 47 45 40 36 33 34 37 39 40 40 40 39 39 40 40 39 38 39 39 38 38 38 38 38 38 38 38 39 39 39 40 40 40
25 25 25 28 31 34 35 35 34 34 34 35 37 38 40 43 45 46 47 48 47 45 45 45 45 45 46 47 48 47 45 45 44 41 38 36 38 41 42 43 43 43 42 42 41 41 40 40 41 41 40 39 39 39 40 39 39 39 40 40 40 40 40
25 28 29 29 29 29 30 31 31 32 34 35 35 36 37 38 40 41 43 45 46 46 48 48 47 46 45 45 45 45 43 42 43 43 41 40 39 41 43 44 45 45 45 44 44 43 42 42 42 42 41 40 40 39 40 40 40 41 41 41 41 41 41
22 26 29 31 31 31 30 30 29 30 32 33 33 34 34 35 37 38 40 41 43 44 45 47 47 47 45 44 43 43 42 42 42 44 45 44 43 43 43 44 44 45 45 45 45 44 44 44 44 43 42 42 40 40 40 40 41 41 42 41 41 41 42
19 22 26 28 30 32 33 32 32 31 32 32 31 32 32 32 34 36 37 38 40 41 41 42 43 44 44 44 43 42 41 41 41 42 44 45 46 46 46 46 45 46 46 46 46 46 45 45 45 45 44 43 42 41 41 40 41 41 42 42 42 42 42
19 21 24 26 28 31 32 33 34 34 34 35 34 33 33 33 33 35 36 37 39 40 40 39 39 40 41 42 43 43 43 42 43 43 43 43 44 45 46 47 47 48 48 48 48 47 47 46 46 46 46 45 44 44 43 42 42 42 42 42 42 42 43
20 22 24 25 28 30 31 32 32 33 33 34 35 35 34 34 34 35 36 37 38 38 38 39 39 39 39 40 41 42 42 43 43 44 44 43 43 43 44 45 46 47 48 48 48 48 47 47 47 47 47 47 47 46 45 45 45 44 44 43 43 43 43
22 23 25 27 28 30 31 31 32 32 32 32 33 34 34 34 35 36 37 39 39 38 37 38 39 39 39 40 40 41 41 42 42 43 43 42 43 43 43 44 45 46 47 48 48 47 47 47 47 47 47 48 48 48 48 47 47 47 46 45 45 44 44
25 26 27 29 30 30 32 32 33 33 33 33 33 33 32 33 34 35 36 38 39 39 39 39 39 39 40 41 42 42 42 41 41 41 42 42 43 44 44 44 45 46 47 47 47 47 46 46 47 47 47 47 48 48 48 48 48 48 48 47 46 46 45
29 28 29 31 32 33 33 33 33 34 36 36 35 35 34 34 34 35 36 37 38 39 39 40 40 40 40 41 41 41 42 42 42 41 41 42 44 44 44 44 44 45 46 47 47 47 47 46 47 47 47 47 47 47 47 47 48 48 48 47 47 47 47
33 32 31 32 33 33 34 34 34 35 36 37 38 37 37 37 37 37 37 38 39 39 40 40 40 40 41 41 41 41 41 42 42 42 42 42 42 43 43 43 43 44 45 47 47 48 48 47 47 47 48 48 47 47 47 47 47 47 47 47 47 47 47
35 35 34 34 35 35 35 36 36 36 37 38 39 39 38 39 39 39 39 39 39 39 40 40 40 40 41 41 42 42 42 42 42 42 43 43 43 42 42 43 43 43 44 45 47 47 47 47 48 48 48 48 47 47 47 47 47 47 47 47 47 47 47

ECMWFFLT2_500_spd_102.txt.gz
Wind_Speed
38 39 39 40 42 43 44 47 49 47 45 44 43 41 38 33 33 35 35 31 27 25 25 26 26 24 21 19 18 16 16 18 19 18 16 16 21 30 33 31 29 27 24 22 22 22 21 19 18 16 16 17 16 16 16 16 17 16 16 16 18 18 18
38 38 39 40 42 43 44 45 47 47 46 46 45 43 41 38 37 38 36 32 29 28 27 27 27 26 22 19 18 17 16 17 19 20 18 17 20 25 29 30 29 28 26 25 24 23 22 20 18 17 16 16 15 15 14 14 15 16 16 17 17 17 18
37 38 39 40 42 43 44 45 46 47 48 47 46 45 44 41 40 40 37 33 31 30 28 27 27 26 24 22 20 19 17 18 19 19 19 19 20 22 26 29 30 30 29 28 26 23 21 20 18 17 16 16 15 15 15 14 14 14 14 15 16 16 17
37 37 38 40 41 43 44 45 46 47 48 47 46 46 45 43 41 41 40 36 34 31 29 29 28 26 25 25 23 20 18 17 17 17 17 17 17 19 25 31 34 34 32 29 26 24 23 22 21 19 18 17 17 16 16 15 15 14 14 14 15 16 17
37 37 38 40 41 42 44 46 46 48 49 48 47 47 46 45 43 41 41 41 38 34 31 30 29 28 27 26 25 23 21 19 18 17 17 17 16 16 22 31 35 34 32 28 27 27 27 26 23 22 22 21 20 19 17 16 16 16 16 16 16 18 19
37 37 38 40 40 42 44 46 46 48 50 49 48 48 48 47 46 43 41 40 40 37 34 32 31 30 28 27 26 24 23 22 21 20 19 18 18 17 20 25 29 30 30 29 28 28 28 27 25 24 24 23 23 21 19 18 18 18 17 17 17 19 21
38 37 39 40 40 41 43 45 46 47 49 51 51 49 49 49 48 46 42 40 39 38 37 35 33 31 29 28 27 26 24 24 24 24 24 22 21 21 21 22 23 26 28 30 31 31 29 28 27 27 26 25 25 24 22 21 21 21 21 20 19 20 21
38 37 38 40 40 40 41 43 46 47 49 52 52 51 50 50 50 48 44 41 40 38 36 35 35 33 31 29 28 27 26 26 26 26 26 26 24 23 22 22 23 25 27 29 30 32 32 31 31 30 30 29 27 26 25 24 24 25 24 23 23 22 22
38 38 37 39 40 39 40 42 45 47 49 51 53 52 52 51 51 50 46 43 42 39 36 35 35 35 33 31 29 28 27 27 27 26 25 25 25 24 24 25 25 26 27 27 28 30 32 33 34 32 31 30 28 26 25 26 27 27 27 27 27 26 25
36 40 37 38 40 39 40 42 44 46 49 50 51 52 53 53 52 51 48 46 45 43 39 36 35 35 34 32 30 29 28 28 29 28 25 23 24 25 27 28 28 28 28 27 26 28 30 31 33 32 30 28 28 27 27 29 29 29 29 30 30 30 29
32 38 40 39 40 41 41 42 43 44 47 49 50 51 52 53 53 51 50 48 47 47 45 41 38 37 36 35 34 32 31 30 31 32 30 26 25 27 29 30 30 29 29 28 26 26 27 28 29 29 28 28 28 29 30 31 31 31 31 30 31 33 33
30 33 41 42 41 42 42 42 42 42 43 46 48 49 50 52 53 52 51 50 49 49 48 45 43 42 41 39 38 37 35 34 33 34 34 31 29 29 30 30 30 29 28 29 27 26 27 28 27 26 26 27 27 28 29 30 30 30 30 30 31 33 35
33 30 39 43 43 43 42 42 41 41 40 42 45 47 48 50 52 52 52 52 51 50 50 48 47 46 45 43 42 40 39 37 35 35 35 34 32 32 31 31 30 28 27 27 26 26 25 25 25 25 26 26 26 25 26 27 27 27 27 27 29 32 35
36 32 36 42 43 42 41 39 40 40 39 40 42 44 46 48 50 51 52 53 53 52 51 50 49 48 47 45 44 43 40 39 37 35 34 34 33 33 33 32 31 30 29 26 25 24 24 22 21 22 22 23 23 24 24 25 25 25 25 24 25 29 32
38 34 35 38 41 43 42 39 37 37 38 39 40 42 44 46 48 51 52 53 53 53 52 52 50 49 47 45 44 43 41 38 37 35 33 32 32 33 34 35 34 33 31 29 25 24 24 22 20 20 20 20 21 22 23 24 25 24 23 22 23 26 28
39 36 36 36 36 39 43 44 41 38 37 38 39 41 43 45 47 49 51 51 52 52 51 51 50 49 47 44 42 41 40 39 36 34 32 31 30 29 32 35 34 33 33 33 30 25 24 23 22 22 22 22 23 23 21 22 24 24 22 20 21 23 25
39 37 37 37 33 33 35 41 45 42 38 38 39 39 41 43 45 46 48 48 48 50 51 49 48 46 45 43 41 40 40 39 36 34 33 31 27 25 28 31 31 31 32 33 31 27 25 25 24 24 24 24 25 24 22 21 24 24 23 22 21 21 23
37 37 36 35 34 32 29 30 39 43 41 39 39 39 40 42 43 43 45 46 46 48 50 49 46 43 42 42 42 41 40 38 37 35 34 32 28 25 26 29 29 29 29 30 30 29 27 27 26 25 26 26 26 25 23 23 23 22 21 22 21 19 19
35 36 35 34 34 33 29 27 32 40 44 43 40 39 40 42 43 43 43 45 46 47 47 48 47 45 45 44 43 41 40 38 38 37 36 34 31 27 27 29 30 30 29 29 30 30 30 30 29 28 28 28 28 26 25 26 26 23 22 22 22 20 18
34 36 36 34 34 33 31 30 31 35 42 45 44 43 44 45 45 45 44 44 44 44 44 46 48 47 46 45 43 40 39 38 37 36 35 34 31 29 29 31 32 32 31 29 29 30 30 31 30 29 29 29 29 28 27 27 27 26 25 25 25 24 22
32 35 37 36 36 34 33 32 32 32 37 44 46 46 47 48 47 47 46 46 45 44 44 45 47 47 45 44 43 41 39 38 37 35 35 34 31 29 30 32 32 33 32 31 30 31 31 31 31 30 30 29 30 30 29 29 28 27 27 26 26 25 24
30 33 35 36 37 37 36 34 33 32 35 41 47 49 48 48 47 47 47 47 47 46 46 45 44 43 43 43 43 44 42 41 39 36 34 34 32 31 31 30 30 30 31 31 32 32 32 32 32 31 31 31 30 31 31 30 29 28 27 26 25 24 23
26 30 32 33 35 37 38 36 33 33 34 37 44 48 48 48 48 47 46 46 44 42 44 45 43 41 41 42 44 45 45 45 44 41 38 37 37 35 34 33 32 31 31 31 32 32 32 32 32 32 32 32 31 31 32 32 31 30 29 27 26 25 24
19 24 28 29 31 34 36 36 35 35 34 32 34 40 44 46 46 45 45 46 43 37 34 37 40 40 40 41 42 43 44 46 47 46 44 43 42 41 40 39 39 38 36 34 34 34 34 34 33 32 32 32 32 32 32 32 32 31 30 29 27 26 26
14 17 21 25 28 30 32 32 32 35 36 34 31 33 37 40 42 42 42 45 45 40 34 33 35 37 40 41 41 41 40 42 45 48 49 48 48 47 47 46 44 42 41 38 37 36 36 36 35 35 34 34 34 34 33 33 33 32 31 30 29 28 27
14 14 15 19 23 27 29 29 30 33 36 36 34 32 33 35 38 40 40 41 42 42 39 38 38 38 39 41 43 42 41 41 42 44 46 47 48 50 50 50 49 46 44 41 40 39 38 37 36 36 36 35 35 35 34 34 34 33 33 32 30 29 28
13 15 16 17 19 23 26 28 29 31 35 37 38 36 34 35 37 39 41 42 42 42 41 42 42 42 41 41 43 45 46 45 44 44 44 45 47 47 48 49 50 49 47 45 43 42 41 40 39 37 37 36 36 35 35 34 34 33 32 32 31 30 29
12 13 16 17 18 19 22 25 26 28 31 36 39 38 37 36 36 37 38 40 42 42 41 41 43 45 45 44 43 43 45 46 46 44 41 41 45 47 47 48 48 49 49 48 47 46 45 45 44 41 39 37 36 36 35 34 33 32 31 31 30 30 30
15 14 14 16 18 19 21 22 24 24 26 30 34 36 36 36 36 36 36 37 38 39 39 39 40 43 46 47 46 45 44 45 48 48 43 38 37 38 42 46 49 49 50 51 50 50 49 48 47 45 43 41 39 38 37 35 34 33 33 32 31 31 31
18 17 16 16 17 19 22 23 24 24 24 26 28 30 32 33 34 36 36 36 37 37 37 38 38 39 42 44 46 47 47 45 46 48 48 44 38 33 34 39 44 47 50 52 52 53 52 51 49 47 45 44 42 40 38 37 37 36 36 36 36 35 35
19 20 19 19 18 19 21 23 25 26 26 26 27 28 28 29 31 33 35 36 38 38 38 39 39 39 41 41 42 45 49 50 48 47 47 45 42 39 37 38 40 42 44 47 50 51 52 52 50 48 46 45 43 42 41 41 40 40 40 40 40 40 39
20 21 21 22 22 21 21 22 24 26 27 28 29 29 28 28 28 29 31 33 35 36 37 38 39 40 41 42 42 42 46 50 53 53 53 51 48 46 44 44 44 44 42 42 42 43 44 45 45 44 44 43 42 43 43 43 42 42 42 42 42 43 42
21 22 23 23 24 25 25 24 24 25 26 28 29 30 31 31 31 30 30 31 32 34 36 38 39 38 38 39 40 39 40 45 49 52 54 53 51 49 49 48 48 47 46 44 43 42 41 40 40 41 42 43 44 45 45 45 45 45 45 45 44 44 44
22 23 23 24 25 26 27 28 28 28 28 28 29 30 31 32 34 34 34 34 33 34 36 38 40 40 39 36 33 32 32 34 38 42 43 43 42 43 45 47 48 48 47 46 45 44 43 43 42 43 44 46 48 49 48 48 48 48 48 48 47 47 46
25 26 26 27 27 28 29 30 31 32 32 32 32 31 31 32 33 34 35 37 37 37 37 38 40 42 42 40 38 37 35 32 33 35 37 37 37 37 38 41 44 47 48 48 48 47 46 45 44 44 45 46 47 49 49 49 48 48 48 49 49 49 48
28 29 30 30 30 31 31 32 33 34 35 35 34 34 34 34 33 34 34 36 37 39 40 40 41 42 43 43 44 47 47 43 39 38 39 39 39 39 38 39 40 43 46 48 49 49 49 48 48 47 46 46 47 47 48 48 48 48 49 49 49 49 49
29 30 30 31 31 32 32 33 34 36 37 37 37 36 36 36 36 36 36 36 37 38 39 41 42 43 44 44 45 48 50 48 44 42 41 42 42 42 42 41 41 41 43 45 48 49 50 51 51 50 50 49 49 48 48 48 49 49 49 50 50 50 50

ECMWFFLT2_500_spd_105.txt.gz
Wind_Speed
37 37 38 40 41 43 41 40 41 41 41 40 39 38 36 33 33 34 33 31 28 24 24 25 26 26 26 25 24 23 22 20 19 18 18 21 24 26 27 27 28 28 26 25 24 24 23 22 21 21 21 21 22 22 22 21 20 19 19 20 20 20 19
38 38 38 40 42 42 42 40 39 40 41 42 41 39 37 35 35 35 33 32 29 25 24 24 24 25 26 25 24 22 20 19 18 18 18 19 21 23 26 29 31 31 30 27 25 24 23 22 22 22 22 21 21 21 22 21 21 21 20 20 21 21 21
38 38 38 40 42 42 42 41 39 40 43 44 43 41 39 37 37 36 33 32 31 27 24 23 23 23 23 24 24 22 20 19 19 19 19 20 20 21 22 28 35 34 29 28 26 25 24 24 23 23 22 21 19 18 19 20 21 21 20 20 20 20 21
38 39 39 39 41 42 42 42 40 41 43 44 43 42 40 38 39 37 34 32 32 28 24 24 24 22 22 23 24 23 21 19 19 19 20 20 20 21 19 23 34 38 31 28 27 25 26 25 24 24 23 21 19 18 18 19 19 19 19 19 20 20 21
38 38 39 39 40 41 41 42 41 42 43 44 44 43 41 40 40 37 34 33 32 29 26 26 25 23 22 23 24 23 22 20 20 19 19 19 19 20 18 17 27 37 34 30 28 26 26 26 26 26 24 22 21 20 20 19 19 19 19 20 21 22 22
37 37 38 39 38 40 40 41 41 41 43 44 44 45 44 42 41 39 36 34 32 29 28 27 27 25 23 24 25 25 24 22 21 20 19 20 19 20 18 16 22 31 32 30 30 30 29 29 28 27 25 23 22 21 21 21 20 21 21 21 22 22 23
35 36 37 38 38 38 39 40 42 42 42 43 44 45 44 43 43 42 39 36 33 31 30 29 29 28 26 25 26 26 26 24 23 22 21 20 19 19 19 18 22 30 33 32 31 32 33 32 29 27 26 23 21 21 21 21 22 23 22 22 21 21 21
32 35 36 36 37 37 38 39 42 42 42 43 44 45 44 45 44 43 41 39 35 33 32 31 31 30 27 26 26 27 27 26 24 23 22 21 19 19 19 19 22 26 31 34 35 35 35 33 30 28 27 26 25 24 25 25 24 23 22 21 20 19 19
28 33 35 35 36 36 38 39 41 43 43 42 43 44 45 46 46 44 42 40 37 35 34 33 33 32 29 27 26 26 27 27 26 25 24 23 22 20 20 20 21 21 23 28 34 36 36 34 32 31 29 29 29 29 28 28 26 24 22 21 21 20 20
27 31 35 35 36 37 38 40 41 42 43 43 43 44 46 47 46 45 44 41 39 38 36 34 34 34 33 31 28 27 27 27 27 26 25 24 23 22 21 21 22 23 22 22 24 28 30 31 33 33 32 32 32 31 31 31 28 26 25 25 25 25 24
28 31 35 35 35 38 39 40 42 41 42 43 44 45 46 47 47 46 45 43 41 40 38 36 34 33 33 33 31 30 29 28 27 27 27 26 24 23 22 22 22 24 25 23 21 21 24 25 28 31 33 35 36 35 34 33 30 29 29 30 30 29 27
30 30 36 37 35 36 39 41 41 41 41 42 44 45 46 47 47 46 46 45 42 40 39 38 36 34 33 32 31 30 31 31 29 28 28 28 26 24 23 23 23 24 24 24 23 23 24 24 24 27 29 31 34 36 35 33 32 32 32 31 31 31 29
35 31 34 40 39 36 38 41 42 40 39 41 43 46 46 47 47 46 46 45 44 42 41 39 37 36 35 34 32 30 30 31 30 29 29 28 28 26 25 25 25 24 23 23 24 25 26 26 26 26 27 27 28 33 36 34 33 33 33 33 32 31 31
40 36 33 37 42 40 37 39 42 41 40 39 41 44 46 47 47 46 46 45 44 44 43 41 39 37 37 36 36 34 32 31 31 31 31 30 28 27 26 26 28 27 25 25 25 25 27 28 27 27 27 26 25 27 32 33 32 32 33 33 31 31 31
41 41 34 33 39 43 41 39 40 42 41 40 40 41 43 46 46 46 46 45 45 45 44 42 40 39 38 37 38 38 37 37 36 35 34 33 31 29 27 27 29 30 30 28 27 26 27 28 28 27 28 27 26 25 26 28 29 29 30 29 29 29 30
40 42 38 33 34 40 44 42 40 41 42 41 41 40 40 42 43 45 46 45 44 44 43 42 42 40 39 38 38 39 40 41 40 39 38 36 34 32 30 29 29 30 31 31 29 28 28 28 27 27 26 26 25 24 25 26 27 27 27 26 26 27 28
39 41 39 36 33 35 41 45 43 41 41 41 40 40 39 39 40 42 44 44 44 43 42 43 43 42 40 40 40 40 40 41 41 40 39 38 36 34 31 29 29 29 30 30 30 31 31 31 30 28 27 26 25 23 23 24 25 25 26 25 24 25 26
35 40 39 38 36 33 35 41 44 43 42 42 41 40 39 38 39 40 41 41 42 42 42 42 42 42 43 43 43 42 41 41 39 38 37 37 36 34 31 29 28 28 29 31 31 32 33 33 33 32 31 30 28 25 24 24 24 24 24 24 24 25 25
27 35 38 39 40 34 30 34 40 42 43 43 42 41 39 38 37 38 39 39 39 40 40 39 40 41 43 44 44 43 42 40 37 35 34 34 34 33 31 30 29 28 27 28 30 32 33 33 34 33 32 32 30 28 27 26 25 24 24 25 25 24 24
23 28 33 37 38 36 32 30 33 38 42 44 44 42 40 38 37 36 37 38 38 38 37 37 38 40 41 42 42 41 40 38 36 33 33 33 33 33 31 30 30 30 28 27 28 31 33 33 33 32 32 32 32 31 29 29 27 26 26 26 25 23 23
22 24 28 32 34 35 35 34 32 33 37 40 43 45 42 39 38 37 36 36 36 36 36 35 36 37 37 38 39 39 39 38 36 35 34 33 32 32 32 31 31 31 31 29 29 31 33 34 34 33 32 32 33 33 32 31 30 29 28 28 26 26 25
21 22 24 28 30 30 32 34 34 34 32 32 35 40 42 40 38 38 37 36 36 36 36 36 36 36 36 35 34 34 36 36 36 36 36 35 33 32 32 32 32 33 33 33 32 32 34 35 34 34 33 33 34 34 34 33 32 31 30 29 27 27 27
16 20 23 25 26 26 26 30 34 35 34 32 30 31 35 38 38 38 39 38 37 36 37 38 38 36 35 35 34 34 35 36 37 37 38 38 36 35 34 33 32 33 33 34 34 34 35 36 35 35 35 34 34 34 34 34 33 32 31 30 28 28 28
10 14 19 23 25 24 24 26 29 32 34 34 32 29 30 33 35 38 41 40 39 38 38 39 39 38 37 37 37 38 38 39 41 41 40 40 39 36 35 34 33 33 33 33 33 34 35 37 37 37 36 35 35 35 35 35 34 34 33 32 31 31 30
10 11 14 18 21 23 24 23 25 29 30 31 32 31 30 30 30 33 38 42 43 42 40 37 37 39 40 39 37 38 40 42 45 44 41 41 41 39 37 36 35 34 34 34 34 34 35 36 36 37 37 36 35 36 36 36 36 35 34 33 33 33 32
10 11 12 13 15 19 22 22 22 25 27 29 31 31 31 31 31 31 34 40 45 48 45 41 38 40 41 39 37 38 38 38 42 46 46 43 43 42 40 40 39 38 37 36 35 35 36 36 36 36 36 36 36 37 37 37 37 37 36 36 34 33 32
9 10 11 13 14 15 18 20 21 23 25 26 27 29 30 32 33 34 33 35 41 47 49 46 43 42 42 40 39 41 41 35 33 38 41 42 43 44 43 42 41 41 41 40 39 38 38 39 38 38 37 37 36 37 37 38 38 38 38 37 36 35 34
10 10 10 12 13 13 15 17 18 21 23 23 23 25 28 30 33 36 36 34 34 39 44 46 46 44 43 43 41 42 44 42 38 35 33 33 36 38 40 41 42 43 44 44 44 43 43 43 42 41 41 40 38 38 38 38 38 39 38 38 38 37 36
11 11 11 12 12 13 14 15 16 18 20 21 22 23 26 28 31 34 37 36 34 33 34 38 43 44 44 45 46 44 41 40 40 39 37 35 33 33 35 37 39 42 44 46 47 47 47 47 47 46 44 43 42 41 41 40 40 39 39 38 38 37 36
14 13 13 13 13 14 14 15 16 17 18 20 22 23 25 27 30 32 35 37 37 35 33 33 38 41 42 44 47 48 45 40 36 36 36 36 36 35 35 36 38 40 43 44 47 50 51 50 50 49 48 46 44 43 43 42 41 40 39 38 38 37 36
16 16 15 15 15 15 15 16 16 17 18 19 20 22 24 27 29 32 34 36 39 39 38 37 37 39 41 43 44 44 44 42 42 42 41 41 41 40 39 37 38 41 44 44 44 47 50 51 51 50 49 47 46 45 45 44 44 43 41 40 39 38 37
18 18 18 18 18 18 17 17 18 18 19 19 19 21 23 25 27 30 32 35 39 41 41 39 38 39 40 42 44 44 41 37 38 41 44 45 46 47 46 44 41 41 45 47 46 46 48 50 51 50 49 48 47 47 47 47 47 46 45 43 42 40 39
18 19 20 20 21 21 21 20 20 20 20 21 21 21 22 24 25 27 29 31 36 41 42 39 38 38 37 36 39 43 44 40 37 38 40 43 46 48 49 49 47 45 45 45 45 45 46 48 50 51 51 50 49 49 49 49 49 48 48 46 44 43 42
19 19 20 21 22 22 23 23 23 23 22 23 23 23 23 24 25 26 28 29 31 36 40 40 39 39 38 37 37 38 39 41 41 38 36 38 41 44 47 49 50 49 48 45 42 41 40 41 44 48 50 52 53 52 52 52 51 51 50 49 48 47 45
20 21 22 23 23 24 25 25 26 26 26 25 25 25 26 26 27 27 28 29 30 32 36 39 40 41 41 43 43 40 37 37 38 36 34 34 35 36 41 47 50 52 52 53 52 49 45 42 40 41 44 46 49 52 54 54 54 54 53 52 51 50 49
21 22 23 25 26 27 28 29 30 30 31 31 30 30 29 29 30 30 30 31 31 33 35 37 39 40 41 43 45 45 43 41 40 39 39 40 38 35 35 39 44 48 49 51 54 54 53 51 48 46 44 44 44 46 48 51 53 54 55 54 53 53 51
22 23 24 25 26 28 29 30 32 33 34 35 35 35 34 33 33 33 33 34 34 35 37 38 39 40 41 42 43 44 45 45 44 42 41 41 42 42 39 36 35 37 39 40 42 44 46 48 49 49 48 48 47 46 46 47 48 49 50 51 51 52 51

ECMWFFLT2_500_spd_108.txt.gz
Wind_Speed
38 37 36 38 37 34 36 38 38 38 40 39 31 24 26 29 29 30 31 31 29 27 27 26 26 25 23 21 19 18 20 19 19 20 19 19 20 22 23 23 23 22 21 21 22 22 22 22 22 24 24 25 26 26 26 26 26 25 25 24 23 22 21
37 38 36 38 38 35 35 36 36 38 40 42 40 31 28 30 30 28 30 30 27 28 30 28 27 26 24 22 20 19 20 19 20 21 20 19 20 23 25 25 23 22 22 23 24 24 24 24 24 25 25 25 25 26 26 27 27 26 26 26 25 23 23
36 37 37 37 38 39 37 36 38 40 39 40 41 36 29 28 29 25 25 29 28 28 29 27 26 27 25 23 21 21 20 20 20 21 21 20 20 23 26 27 24 22 22 24 26 26 26 26 25 25 25 24 24 24 25 26 26 26 26 26 25 24 24
37 35 37 35 35 40 40 38 40 40 38 38 40 39 33 25 23 22 23 26 28 28 27 25 25 26 25 24 22 22 21 20 19 20 21 21 21 21 22 24 24 23 24 25 27 28 28 27 27 26 25 23 23 23 24 25 25 25 25 25 25 25 25
36 33 36 33 27 31 38 40 40 38 38 39 39 40 38 30 22 19 21 24 27 28 25 23 24 25 24 23 23 23 23 22 21 21 21 21 22 21 20 19 21 23 25 27 28 29 30 30 28 27 25 24 23 22 23 24 24 24 24 24 24 25 25
29 30 36 36 29 28 31 34 36 37 38 40 40 39 39 39 33 24 21 22 24 25 25 24 25 25 23 23 23 23 24 23 22 22 21 21 22 22 21 20 20 22 25 26 27 29 32 32 30 28 27 25 24 23 23 22 22 22 22 23 23 23 24
23 31 37 38 38 36 30 27 30 34 37 39 38 35 36 40 41 35 27 24 23 23 25 26 26 25 24 23 23 24 24 24 23 23 22 21 21 21 21 21 21 22 24 26 28 31 34 35 32 30 29 28 27 25 24 23 22 22 22 22 22 22 22
23 31 37 37 38 38 34 33 35 37 38 39 38 37 36 37 39 39 35 29 26 27 26 26 27 27 26 25 24 25 25 24 24 24 23 22 20 20 21 21 21 22 23 25 29 33 35 35 33 32 31 30 29 27 26 25 24 24 23 22 22 21 21
25 27 33 37 37 37 38 39 39 39 39 41 41 40 40 38 34 37 39 33 30 29 27 27 28 29 28 27 26 26 26 26 26 25 24 23 21 21 21 21 21 21 21 22 26 32 35 35 32 32 32 31 30 28 28 28 27 27 26 24 23 22 21
27 26 28 34 38 39 41 41 38 37 38 40 40 40 41 40 35 34 37 36 33 31 28 28 29 29 30 30 29 29 28 27 27 26 25 24 23 23 22 21 21 20 21 20 20 25 33 38 34 32 33 32 31 30 30 30 29 27 27 25 24 23 22
25 24 25 30 36 39 42 42 39 35 35 37 39 40 40 40 40 37 35 35 35 35 33 31 30 30 31 31 31 31 31 29 27 26 25 24 24 24 23 22 21 20 20 20 18 18 23 32 35 35 36 34 33 34 34 32 30 29 28 27 25 24 23
25 22 23 26 32 37 40 42 40 36 35 36 38 40 40 39 39 37 35 35 35 35 35 33 31 31 33 33 33 32 32 31 30 27 25 25 26 26 25 23 22 21 20 19 19 17 17 21 25 31 37 39 38 37 36 34 32 31 30 30 28 27 26
30 25 23 25 29 33 36 40 41 38 37 37 38 40 42 41 38 35 35 36 35 36 37 34 31 32 34 35 35 34 33 32 31 30 28 28 27 27 26 25 23 23 22 20 19 18 17 18 19 22 27 33 36 36 36 35 35 34 33 33 32 31 30
35 31 27 26 28 31 33 38 42 40 37 37 39 40 41 41 40 37 36 34 34 37 39 37 34 33 33 34 35 35 35 33 32 32 31 31 30 29 28 27 25 25 24 22 20 19 18 18 19 20 22 24 27 28 29 29 31 34 36 37 35 34 33
35 34 32 30 29 31 33 36 39 40 39 38 39 39 39 40 41 40 39 37 36 38 39 38 37 35 34 34 34 35 35 35 34 34 34 34 33 32 31 29 28 27 27 25 23 22 22 21 20 21 23 23 23 23 23 23 25 28 33 38 40 37 35
31 32 33 34 32 32 34 36 37 39 40 39 39 39 38 39 39 39 40 41 42 41 39 37 37 36 35 34 34 34 35 35 34 34 34 35 35 35 34 32 30 29 28 28 26 24 24 24 23 22 23 23 22 22 24 24 25 25 27 33 39 39 35
29 30 32 37 37 33 32 35 37 39 40 39 39 39 38 38 38 38 40 43 45 42 38 37 37 37 36 35 34 34 34 34 35 35 35 36 37 37 36 35 33 31 30 29 28 27 26 26 26 24 23 22 20 20 21 23 25 25 24 25 30 33 30
25 27 29 36 40 37 34 34 35 37 40 40 39 39 39 38 38 39 40 42 42 40 38 38 38 37 36 36 35 35 34 33 33 35 36 37 38 39 39 38 36 34 33 32 31 30 29 28 28 27 25 25 23 21 20 20 21 23 24 23 24 26 26
22 24 26 33 41 41 37 35 34 34 38 41 40 40 40 40 39 39 39 39 38 37 37 38 37 37 36 36 37 37 36 35 34 34 35 37 38 39 40 40 38 37 35 34 33 32 31 30 30 29 28 27 27 25 23 22 21 21 22 22 22 23 24
19 21 22 28 36 39 38 37 36 35 36 39 40 40 40 41 41 40 39 38 36 35 35 35 35 35 36 36 38 38 37 37 36 36 36 38 38 39 40 40 40 39 37 36 35 33 32 31 31 31 30 28 27 28 27 25 25 24 23 23 22 22 23
16 18 20 24 29 34 38 37 35 35 34 35 39 40 39 39 41 41 39 38 36 35 34 33 33 33 34 35 36 37 37 38 38 38 38 39 38 39 39 39 39 39 38 36 34 34 34 33 32 31 30 28 28 30 30 28 28 28 27 26 25 24 23
15 17 19 21 23 29 34 34 33 33 32 31 34 38 39 38 39 40 40 38 36 34 34 33 32 33 33 33 33 34 36 37 37 38 39 40 41 40 39 38 38 38 37 36 34 34 34 34 34 33 30 28 29 30 29 29 29 29 29 29 29 28 26
14 16 18 20 21 23 26 27 27 28 28 28 30 34 38 39 39 39 39 39 37 36 34 33 31 31 31 32 32 32 34 36 38 39 39 40 42 40 37 36 36 36 37 36 34 33 34 35 36 35 33 30 29 29 29 29 29 29 29 30 30 30 28
10 13 15 18 21 21 20 21 22 23 23 24 27 30 33 37 37 37 38 39 38 37 36 35 34 33 34 34 34 34 35 37 39 40 39 40 42 39 35 34 36 36 37 36 34 33 34 35 36 37 35 33 32 31 30 30 30 30 29 30 31 31 30
9 10 12 15 17 18 19 19 19 19 19 21 26 29 30 31 32 35 37 39 39 38 37 37 37 36 36 36 35 34 36 39 41 41 41 42 43 42 39 38 39 40 39 38 37 35 34 35 37 37 37 37 34 33 32 31 31 32 31 31 31 31 31
9 10 12 14 14 15 16 18 18 18 19 21 26 29 30 30 30 32 33 35 37 40 41 40 38 36 36 36 35 33 33 36 40 42 43 45 46 45 42 41 42 43 42 40 39 38 36 35 36 37 38 38 37 35 33 33 33 34 33 33 33 33 33
8 9 11 13 13 12 13 15 17 18 20 22 24 26 28 29 30 30 31 30 32 36 41 42 41 40 38 37 36 36 35 34 36 38 39 42 44 44 43 43 43 43 43 42 40 39 37 36 36 37 37 37 37 36 35 34 35 36 36 35 34 34 34
9 10 11 11 11 11 12 14 15 17 19 21 21 22 25 27 28 29 29 30 30 32 36 40 43 43 41 39 37 38 38 37 37 40 41 39 37 38 42 46 47 45 44 43 41 39 38 37 36 36 36 36 36 36 36 35 36 37 37 37 36 35 34
11 12 12 11 10 11 11 13 13 15 17 18 19 21 23 25 27 28 28 30 31 32 32 35 39 42 43 42 41 41 41 40 38 40 44 43 40 37 37 42 46 46 45 44 41 39 39 38 38 38 37 37 36 36 36 36 36 37 38 37 37 36 35
13 13 13 13 13 12 12 12 13 14 15 16 17 20 22 23 25 27 28 29 31 34 34 33 35 39 40 40 41 43 44 45 42 39 39 41 41 40 38 36 37 40 42 42 41 41 41 41 40 41 40 39 39 38 37 37 37 38 38 38 38 38 37
15 15 15 14 14 14 14 14 14 14 15 15 16 17 20 22 24 26 28 29 30 33 35 35 36 38 37 36 38 40 41 43 45 45 45 44 43 44 43 41 39 38 39 40 41 43 45 44 44 44 44 43 42 41 40 40 40 39 39 39 39 39 38
15 16 16 16 16 16 15 15 16 16 16 16 16 17 17 20 22 25 27 29 30 32 35 39 41 40 37 35 34 35 37 38 39 41 45 47 48 47 47 47 44 41 39 39 40 42 45 47 47 47 47 46 46 46 45 44 44 44 43 42 41 40 40
16 17 17 17 18 18 17 17 18 18 18 18 18 18 18 19 21 23 25 28 30 32 35 40 43 42 40 39 35 31 31 34 34 34 36 39 43 46 48 49 48 44 41 39 39 40 40 41 43 46 47 47 48 48 48 48 48 47 46 45 45 44 43
16 16 17 17 18 19 19 19 19 19 20 20 21 21 21 21 21 23 24 26 29 31 34 38 41 42 42 44 42 38 34 31 31 33 33 32 35 39 42 45 46 46 45 43 42 42 40 38 38 40 43 46 48 48 49 50 50 50 50 49 48 47 46
16 16 16 17 19 20 20 21 21 22 22 22 22 23 23 24 24 24 25 25 27 30 33 36 39 41 42 43 44 44 42 38 37 38 36 31 29 31 36 40 41 42 42 41 41 43 43 42 40 40 40 43 46 48 50 51 51 51 51 51 51 51 50
16 16 16 17 19 20 20 21 22 23 24 25 25 25 26 26 27 27 27 27 28 29 31 33 36 39 41 42 43 45 46 45 43 43 41 37 34 33 34 36 37 38 39 39 40 42 43 44 45 45 44 44 44 46 49 51 52 52 53 52 52 52 52
17 17 17 18 19 20 21 22 23 24 26 27 28 29 29 30 31 31 31 32 31 31 32 33 35 37 39 40 42 44 47 48 48 47 45 44 41 39 37 35 35 36 37 38 40 42 44 46 47 48 49 48 48 47 46 47 48 50 52 53 54 54 53

ECMWFFLT2_500_spd_111.txt.gz
Wind_Speed
39 38 33 37 34 23 22 32 37 34 27 18 15 17 17 18 20 22 27 30 29 29 28 26 25 22 19 20 19 18 17 16 15 16 15 13 15 16 16 20 26 32 32 28 25 24 23 23 23 22 23 24 25 26 27 26 25 24 23 22 21 20 20
36 38 34 37 36 25 18 23 29 33 32 25 20 17 17 19 20 21 25 27 27 28 28 26 26 25 23 22 22 21 21 20 16 15 16 14 15 17 17 18 21 28 33 30 27 26 24 23 23 22 22 23 24 25 26 27 27 26 25 24 22 21 21
29 37 37 36 37 33 26 18 18 28 32 29 30 28 21 18 19 19 22 25 25 26 27 26 25 25 24 23 24 24 23 24 19 15 16 16 16 17 18 18 18 22 28 29 28 26 25 24 23 22 22 22 23 23 24 26 26 27 27 25 24 23 22
21 33 37 36 35 37 37 28 20 25 28 24 29 34 27 18 16 17 18 21 24 26 28 28 26 26 25 23 25 25 24 24 21 17 16 17 16 16 17 18 18 19 22 23 24 25 25 24 23 23 22 22 22 22 23 24 25 26 26 25 25 25 25
17 26 32 36 33 32 38 37 26 22 26 24 24 31 33 27 18 14 17 19 22 26 28 27 24 25 25 23 26 27 24 21 20 19 17 17 16 16 17 19 18 18 21 23 23 24 24 24 24 23 21 21 21 21 21 22 23 23 23 24 25 26 26
12 15 21 25 24 22 28 36 33 24 23 24 24 24 29 33 28 17 14 19 24 26 26 24 23 24 25 24 24 27 27 21 17 18 18 17 16 15 15 17 17 17 19 23 24 24 25 25 25 24 23 22 22 22 22 23 23 22 21 22 23 24 26
11 14 19 22 25 24 20 26 34 31 23 22 25 24 22 28 33 26 17 19 26 27 24 21 23 25 25 24 23 25 29 26 17 16 18 18 16 16 16 17 17 15 16 19 22 24 24 25 25 25 25 25 25 25 25 25 23 21 21 22 22 23 25
15 18 23 26 30 29 21 16 22 27 25 22 24 25 22 19 23 27 25 22 24 25 23 21 23 26 25 24 24 24 27 29 21 16 18 20 18 17 16 16 16 17 17 18 19 20 21 22 24 26 27 29 28 26 26 25 24 23 22 22 22 23 23
19 17 20 23 28 32 28 18 15 20 24 24 21 22 24 23 22 23 25 26 26 24 22 21 23 27 25 24 25 25 26 27 24 19 20 21 20 19 16 14 15 18 21 22 21 20 20 21 23 25 28 32 32 30 28 27 26 25 24 23 23 24 24
23 17 17 19 24 31 28 21 19 23 26 29 27 24 25 30 31 27 22 26 33 31 25 22 23 27 28 26 27 27 26 25 25 23 22 21 22 21 18 14 13 16 19 22 23 21 18 18 21 23 26 32 35 34 32 30 29 28 27 25 25 24 24
26 21 20 20 21 24 26 26 30 30 28 30 32 30 28 28 29 30 29 29 34 35 31 28 26 28 30 29 29 29 28 26 25 24 23 22 23 22 20 16 13 13 15 19 21 20 18 17 19 21 24 29 35 36 34 33 32 30 29 28 27 26 25
28 24 21 21 22 23 27 32 34 33 31 33 35 32 30 29 28 31 33 33 32 32 34 35 31 29 31 32 32 32 30 29 28 26 24 24 24 24 23 20 16 14 14 16 19 20 20 20 20 21 21 24 32 37 35 34 35 33 32 30 29 28 27
29 25 22 22 21 21 25 28 30 32 34 37 38 33 31 34 34 31 33 35 35 32 32 34 33 31 33 34 35 35 33 31 30 29 27 26 25 25 25 24 22 19 16 16 17 19 20 20 20 21 20 20 27 34 35 35 36 34 33 32 31 30 29
29 26 24 23 22 22 23 24 25 28 29 34 40 38 37 40 38 33 34 37 38 36 34 33 31 31 34 35 37 37 36 34 33 32 30 29 27 26 25 25 25 23 21 20 20 20 20 19 18 18 18 18 21 27 31 34 37 36 34 33 32 32 31
29 28 26 24 24 25 25 24 27 28 27 31 37 39 40 41 37 34 35 37 37 37 36 35 32 31 34 36 37 38 37 37 36 34 32 30 29 27 26 25 24 24 25 24 23 23 22 21 18 17 17 18 19 20 22 24 29 34 36 36 35 34 33
27 29 29 26 25 26 27 27 29 31 32 34 36 38 39 38 35 35 36 37 37 35 34 33 30 30 34 37 38 38 37 38 38 37 34 32 30 29 29 27 26 26 27 27 26 26 26 24 21 19 18 18 18 19 18 18 20 24 28 31 34 35 36
25 27 29 28 28 28 28 27 26 28 32 34 35 39 41 37 35 35 34 36 38 35 32 32 31 31 33 36 38 39 38 38 39 39 37 35 33 31 30 29 28 29 30 30 29 28 28 27 25 22 21 20 19 19 19 18 18 18 20 23 26 29 32
23 26 28 28 29 31 31 30 29 30 31 30 32 39 43 39 37 38 37 36 37 34 32 32 32 32 33 34 36 38 38 37 38 39 39 38 36 34 32 32 32 32 32 32 32 31 30 29 28 26 25 23 22 21 21 19 17 17 17 19 21 23 25
21 25 26 26 27 30 33 34 35 34 33 32 32 36 40 39 37 38 39 40 40 36 34 32 31 32 33 34 34 37 38 37 37 37 38 39 38 37 36 35 36 36 36 36 35 34 33 31 30 29 27 26 24 24 23 22 20 18 17 17 19 20 22
19 21 23 24 26 28 31 33 35 35 36 36 34 35 38 40 40 40 40 42 43 43 39 36 33 33 34 35 36 37 37 37 37 37 37 38 38 38 39 39 39 39 39 39 38 37 36 35 33 31 29 28 27 26 25 24 24 23 22 21 22 21 21
16 18 19 22 26 26 27 29 32 34 36 36 35 35 37 39 41 43 42 41 41 43 43 41 38 36 35 36 37 37 36 36 37 37 37 38 38 39 40 41 41 41 41 41 40 39 38 38 37 34 32 30 30 29 27 26 25 25 25 25 25 25 24
14 16 18 20 23 25 26 26 28 32 35 36 35 34 36 38 38 41 43 41 39 40 41 41 39 37 37 37 37 36 36 37 38 37 37 38 39 40 41 42 42 43 42 42 41 41 40 39 39 37 34 32 31 30 28 27 27 27 27 28 28 27 27
12 14 16 19 21 24 25 23 23 27 33 37 37 34 35 37 37 38 40 39 37 38 38 37 34 34 36 38 37 35 36 37 37 38 39 40 41 42 42 43 43 43 43 42 42 42 41 41 40 38 35 34 33 32 31 29 28 27 27 28 27 27 27
12 14 17 19 21 23 23 22 21 22 25 32 36 35 36 36 36 37 39 37 35 36 36 35 34 34 37 38 37 37 37 37 37 39 39 40 41 42 43 43 43 43 42 42 41 41 41 41 41 39 37 35 34 34 33 32 30 28 27 27 28 29 28
12 12 15 18 19 19 20 21 21 19 19 24 30 34 37 37 34 35 38 38 37 37 37 36 36 37 40 41 39 38 39 39 38 39 40 41 41 42 42 43 43 43 43 42 41 41 41 41 42 41 39 37 36 35 34 33 32 31 29 28 29 29 29
11 11 13 17 16 14 15 18 19 18 19 22 27 31 35 36 34 33 35 36 38 39 40 40 38 38 41 43 42 40 40 39 38 38 38 39 40 41 42 42 41 41 42 42 41 40 40 40 42 42 40 38 37 36 35 35 34 33 32 30 29 29 29
11 12 14 16 15 13 14 16 16 18 21 23 26 28 30 31 32 32 32 33 35 38 40 42 41 41 42 43 43 42 41 39 40 39 36 36 38 40 40 41 40 38 39 39 39 39 39 39 40 41 39 37 37 37 37 37 36 36 35 33 31 30 31
12 14 14 14 13 12 13 14 14 15 19 21 22 25 27 28 29 30 30 31 33 35 38 42 43 42 42 43 43 43 41 40 40 42 40 37 37 37 37 39 41 41 41 42 42 41 40 39 40 41 40 38 38 37 37 38 38 37 37 36 34 32 33
14 15 15 15 14 12 12 13 13 13 15 17 19 22 24 26 28 29 30 30 30 32 36 40 41 41 41 42 42 42 42 41 40 42 42 42 41 39 37 37 38 39 42 46 47 46 43 42 42 42 42 41 39 38 38 38 38 37 37 37 36 36 34
16 17 17 17 16 15 13 13 14 14 14 14 16 18 21 23 26 28 30 30 30 32 35 36 37 38 39 39 40 41 43 43 41 41 43 45 46 44 42 40 38 35 36 42 46 48 47 45 44 44 45 45 43 40 38 39 39 38 37 38 38 37 36
16 17 17 17 17 17 16 16 16 16 16 16 15 16 18 20 23 26 29 30 31 33 34 34 35 36 37 36 36 37 39 41 42 42 43 46 48 48 46 46 45 40 36 37 39 42 46 47 48 48 47 46 46 43 39 38 39 40 41 40 39 38 38
16 17 16 17 18 18 18 18 18 17 17 17 17 17 18 18 19 22 25 29 30 32 34 35 35 36 37 37 37 35 33 34 38 41 43 45 48 50 49 48 49 46 42 40 39 40 41 43 45 50 52 49 48 45 41 39 40 41 42 41 40 38 38
16 16 16 17 18 18 18 18 18 18 19 19 18 18 19 19 19 20 22 25 27 30 33 35 35 36 37 38 39 39 37 35 34 36 38 40 43 47 48 48 49 49 46 44 43 42 42 39 38 42 49 51 49 45 42 42 44 43 42 41 40 39 38
15 15 16 17 18 17 17 17 18 18 19 19 20 20 20 20 21 21 22 23 24 26 29 32 33 35 37 38 39 41 43 42 39 36 35 36 37 40 43 45 46 47 46 44 44 44 44 43 40 39 42 45 47 46 45 45 45 44 44 44 42 40 39
16 16 17 17 18 18 17 18 18 19 19 19 20 21 21 22 22 23 23 24 24 25 27 28 30 32 35 37 40 42 44 45 43 40 37 35 32 33 36 39 42 44 43 42 43 44 44 45 46 44 42 41 43 45 47 48 48 47 47 47 45 43 42
17 17 17 18 18 19 19 20 20 20 21 21 21 21 22 23 23 24 25 25 26 27 27 28 29 31 32 34 37 40 43 45 45 43 42 40 37 34 32 33 36 40 41 40 39 40 41 42 45 46 45 43 43 43 45 46 47 48 50 50 48 48 47
18 18 18 19 20 21 21 22 22 22 23 23 23 23 23 24 24 25 26 27 28 29 29 30 31 32 32 33 34 36 39 43 45 45 45 46 46 44 40 35 32 33 35 37 38 38 38 38 41 43 45 44 45 45 44 43 42 43 45 47 49 51 51

ECMWFFLT2_500_spd_114.txt.gz
Wind_Speed
20 22 26 32 26 17 12 18 22 24 19 14 14 16 16 16 17 17 16 19 20 21 23 23 20 16 15 15 11 11 14 16 18 19 19 20 20 19 20 21 22 22 25 26 24 23 21 21 22 22 23 23 23 22 21 19 18 17 16 16 15 15 14
12 17 27 36 33 24 16 8 14 20 23 20 15 15 15 14 15 13 12 17 20 19 21 24 23 18 15 15 13 13 15 15 16 18 18 18 19 19 18 21 21 21 25 28 26 24 23 23 22 22 23 23 24 24 23 22 20 19 19 18 17 16 16
10 16 25 34 35 31 25 16 11 16 21 24 24 21 17 14 14 12 12 18 21 21 19 20 22 21 19 19 18 19 20 19 17 17 18 17 17 17 17 18 18 18 21 26 27 26 25 26 24 23 22 22 23 24 24 23 23 22 21 20 19 18 18
12 18 21 26 28 30 30 26 19 14 14 19 23 25 21 15 13 13 12 17 22 23 20 17 18 20 20 21 22 22 21 21 20 19 18 17 15 16 16 15 16 16 18 23 27 28 28 28 26 24 22 21 22 22 23 23 23 23 23 22 21 21 20
12 14 15 18 19 23 28 29 21 12 13 18 19 22 24 20 17 13 12 17 22 23 20 17 16 19 23 23 22 20 19 21 22 19 19 18 15 15 15 14 15 16 17 19 23 28 31 30 27 25 23 22 22 21 20 20 20 21 21 21 22 22 22
13 12 13 14 18 18 23 29 26 18 15 18 16 14 18 21 21 18 13 14 22 22 19 19 19 20 21 20 19 17 18 22 20 17 18 18 16 15 14 14 15 16 18 18 19 23 29 31 29 26 24 22 21 20 19 19 18 18 20 20 21 21 22
18 19 19 17 19 17 19 25 28 23 16 12 15 15 14 17 20 20 16 14 23 22 18 19 22 24 19 15 16 16 18 22 20 15 16 17 16 16 15 15 15 17 19 19 18 20 24 29 29 27 26 24 22 20 19 19 18 17 18 19 19 19 20
17 18 21 20 18 13 16 19 21 24 21 16 15 17 16 13 13 15 15 20 27 26 21 20 22 26 22 16 17 17 18 22 21 16 16 16 17 18 19 20 19 19 20 21 20 20 22 25 26 26 25 25 23 21 20 21 20 18 17 17 17 18 19
16 15 21 23 21 18 23 23 19 20 22 23 20 18 19 18 16 16 16 22 29 31 30 26 23 23 20 16 18 19 18 20 21 19 17 16 18 20 21 20 20 19 19 20 21 21 21 23 24 24 24 24 24 23 23 23 22 20 18 18 18 18 19
20 17 21 23 21 22 25 22 16 13 16 22 22 19 20 19 19 22 23 25 29 31 32 31 27 23 19 17 18 19 18 19 20 20 20 20 21 22 20 17 16 16 16 18 20 21 21 22 22 22 22 23 24 25 25 25 24 22 20 20 21 20 20
26 19 19 21 21 21 19 18 18 18 22 28 29 25 25 23 19 23 29 31 31 30 30 32 32 26 21 19 19 19 18 19 19 19 21 24 24 22 21 18 15 16 16 17 19 20 20 20 20 20 20 22 23 24 26 27 27 25 23 23 24 23 22
31 24 17 17 21 23 21 24 29 29 29 35 37 32 30 30 26 26 31 34 35 34 29 29 33 30 25 24 24 22 19 19 21 20 19 22 25 23 21 19 17 16 15 16 18 20 20 21 21 21 21 21 21 20 21 25 28 28 27 28 28 27 25
29 27 21 17 19 24 24 27 34 34 30 35 41 37 34 35 33 30 34 38 39 37 30 26 29 31 29 28 28 27 23 20 22 20 17 19 24 24 21 20 19 17 17 17 18 18 20 22 24 25 24 22 21 20 20 22 25 28 30 32 32 30 27
29 29 28 23 20 22 23 25 31 34 32 34 39 37 37 39 38 36 38 39 40 40 36 31 27 28 30 31 31 30 27 25 24 20 16 16 22 25 25 24 22 20 18 18 19 17 18 21 24 25 24 22 20 19 19 21 22 23 28 33 35 32 29
29 29 31 29 23 23 23 23 27 30 29 30 32 35 37 38 39 39 37 37 38 38 38 38 34 30 29 30 33 33 30 31 31 27 20 16 19 25 27 25 25 24 19 17 20 20 17 17 21 22 20 19 19 18 17 19 20 19 22 29 33 32 30
26 27 29 29 26 25 23 20 22 24 24 23 27 34 37 36 38 39 35 35 38 36 34 37 39 38 34 31 32 35 34 34 35 35 31 22 18 24 26 21 21 25 22 18 20 22 18 14 17 20 18 16 16 16 17 17 16 14 16 23 29 32 32
24 25 25 24 24 24 24 22 21 22 22 21 23 30 34 34 36 39 38 39 42 40 35 35 37 40 40 35 33 36 38 38 37 40 40 31 23 24 29 27 22 23 25 22 20 21 22 20 18 19 20 18 15 15 16 15 13 12 15 19 23 28 32
20 24 25 24 24 24 24 24 24 23 23 23 23 26 31 32 31 35 39 41 42 42 39 36 35 37 39 38 35 34 36 37 38 40 41 38 31 28 30 33 30 25 24 22 18 16 19 21 20 18 18 19 18 16 15 14 13 13 14 16 19 22 25
18 23 25 26 27 26 25 24 24 25 25 24 24 26 31 32 29 29 35 38 39 39 39 37 36 36 38 38 36 34 36 38 37 37 38 38 36 34 33 34 35 31 26 23 22 20 16 16 16 15 14 17 21 21 19 18 18 17 15 16 17 18 19
18 21 23 25 26 27 27 26 26 26 25 25 26 26 29 32 29 27 31 35 35 36 36 37 37 37 38 39 37 36 39 41 39 39 40 39 37 37 38 37 38 38 35 32 33 32 28 25 25 23 22 23 26 26 24 22 21 21 21 20 18 18 18
15 18 21 24 26 27 27 28 27 27 27 28 29 28 29 32 30 27 30 33 34 34 34 36 37 35 36 39 41 38 37 38 38 38 40 41 40 39 40 40 40 40 41 40 39 38 37 36 34 32 29 28 28 28 27 26 25 24 24 24 22 21 20
13 15 18 21 24 25 26 27 27 28 29 30 30 31 34 35 32 28 29 31 33 34 35 35 35 31 28 31 36 38 36 35 37 39 39 40 41 40 40 41 42 42 42 42 41 40 39 38 37 36 33 32 31 31 30 30 29 27 26 26 25 24 23
13 14 16 18 20 23 24 23 24 26 28 29 30 31 34 36 34 32 31 31 32 35 38 39 37 34 29 25 27 32 35 35 35 37 38 38 38 38 39 40 42 43 43 43 42 42 41 41 40 39 38 36 34 33 33 32 31 30 29 28 26 24 24
12 12 14 17 18 20 22 22 23 25 25 26 26 28 31 34 34 33 33 33 33 34 37 41 42 42 40 36 32 32 35 38 39 37 37 38 38 38 40 41 42 43 44 44 44 43 43 44 43 42 41 39 37 35 34 34 33 32 31 30 28 26 26
11 10 14 18 18 17 18 21 22 22 22 23 24 26 29 31 32 32 32 34 36 35 33 35 40 43 44 44 42 38 35 37 41 41 40 40 40 40 41 42 43 44 44 44 44 44 44 44 44 43 42 41 39 37 36 35 35 34 33 32 31 30 29
11 11 15 20 19 16 16 19 20 20 21 24 26 26 27 28 30 32 33 34 39 39 33 29 32 36 39 41 41 39 35 34 36 40 41 41 41 41 41 41 42 43 43 43 43 43 43 43 42 42 42 41 41 39 38 37 36 35 34 34 33 32 32
13 14 16 18 16 14 14 16 18 18 20 23 25 25 26 27 28 31 33 36 39 41 38 34 30 30 33 37 37 37 37 36 35 36 37 38 39 41 41 40 41 41 42 42 42 42 42 42 42 41 41 42 42 41 39 39 38 37 36 35 34 33 33
15 16 17 16 14 12 12 13 15 16 18 20 22 23 25 27 28 30 32 35 38 40 40 39 35 31 30 34 37 38 38 37 37 37 37 37 38 39 40 40 40 40 41 40 41 41 42 42 42 42 41 41 41 41 41 41 40 39 37 37 36 35 34
16 16 16 16 15 14 14 13 14 15 16 17 19 20 23 26 28 30 31 33 36 38 38 38 37 35 32 33 37 39 38 38 38 39 39 39 39 40 40 41 41 41 41 40 40 41 42 42 42 41 41 42 41 41 42 42 42 41 39 38 38 37 37
16 17 17 18 18 17 16 15 15 15 15 16 17 18 19 22 25 28 30 31 33 35 37 36 35 34 32 32 34 37 37 38 40 41 41 41 41 41 42 43 43 43 43 42 41 41 43 44 43 42 40 40 41 41 42 43 43 40 39 38 38 38 39
16 18 18 18 18 18 18 18 17 16 16 16 17 17 18 20 22 24 26 29 30 32 34 36 37 35 32 31 32 34 34 34 36 39 41 41 41 41 41 43 45 45 45 45 44 42 41 42 44 44 42 41 42 42 43 44 43 42 41 41 40 40 39
16 17 17 16 16 17 18 18 19 18 18 18 18 19 19 20 21 23 24 25 26 27 29 32 35 37 37 35 34 34 35 33 32 34 37 39 40 41 41 42 44 45 46 48 48 48 44 41 41 43 42 42 44 46 47 46 45 44 44 44 44 43 41
16 16 15 14 15 16 16 18 19 19 18 18 19 20 21 21 22 23 24 24 24 24 26 27 29 31 34 36 36 35 36 36 34 33 34 36 38 39 41 42 44 46 47 47 49 50 49 46 44 43 41 38 39 44 48 48 46 46 47 47 46 45 44
16 16 15 15 15 15 15 16 17 17 16 17 18 20 21 22 23 24 24 25 25 25 25 25 25 26 28 30 33 34 36 37 37 36 36 36 37 37 37 39 41 44 46 48 48 48 49 49 48 47 45 41 38 39 44 46 45 45 48 50 49 45 43
18 17 17 17 17 16 16 17 17 16 16 16 18 19 20 21 23 24 25 26 27 27 27 26 25 26 26 26 27 30 32 36 38 38 38 38 39 38 37 37 38 39 40 43 46 47 48 48 48 49 48 45 43 41 41 42 44 43 43 47 51 51 46
18 18 18 19 18 18 17 18 18 18 18 19 20 21 21 21 22 23 25 26 27 28 29 28 28 28 28 27 27 28 28 31 34 35 36 38 40 40 40 40 40 39 38 39 41 43 45 46 47 48 48 46 47 48 47 46 46 44 40 40 45 48 47
20 19 20 20 20 20 20 20 20 20 20 21 22 22 23 23 23 24 25 26 26 27 28 29 29 29 29 29 30 30 29 30 31 31 33 35 38 39 41 42 43 43 42 41 40 40 41 42 43 45 46 45 44 46 49 50 49 48 46 43 42 41 42

ECMWFFLT2_500_spd_117.txt.gz
Wind_Speed
10 9 15 21 24 18 12 15 18 16 19 22 17 18 21 19 16 12 12 18 18 15 14 12 12 11 10 9 9 9 9 8 10 11 12 12 11 15 24 26 23 22 21 20 20 19 17 17 17 16 17 18 18 18 17 16 15 14 14 14 14 13 12
7 10 23 28 26 21 15 16 17 10 16 25 22 22 23 21 19 12 12 14 14 17 15 12 12 12 13 12 9 10 10 8 9 11 11 13 12 13 20 24 24 23 22 21 20 19 19 19 18 17 18 20 21 20 19 18 17 16 15 15 15 14 14
7 11 28 33 27 26 26 23 18 11 14 22 25 25 24 22 20 11 10 13 14 18 16 12 12 13 15 15 12 11 10 9 9 10 10 11 14 16 18 20 21 22 22 22 21 20 21 22 21 19 19 20 22 22 21 20 19 18 17 15 15 15 15
12 13 29 36 30 29 30 26 20 16 14 15 20 23 23 22 20 13 11 13 16 19 17 13 12 12 13 14 15 14 13 13 12 11 10 10 13 15 17 19 19 20 22 23 23 22 23 25 25 22 20 20 22 22 21 22 21 20 19 18 17 17 16
19 17 27 37 33 28 27 25 20 17 14 11 13 18 22 22 21 19 16 14 15 15 14 14 13 11 12 13 16 16 15 17 17 14 13 12 13 15 17 19 20 21 23 24 25 24 25 28 27 25 22 21 22 22 21 21 21 20 20 20 20 19 18
26 21 25 36 38 31 26 23 17 16 16 9 9 13 17 20 22 24 21 18 17 13 13 17 14 11 13 15 17 19 16 16 17 17 16 15 16 17 18 21 23 23 24 25 26 25 25 28 28 25 23 22 21 21 21 21 20 19 19 20 21 20 19
28 23 22 33 40 33 27 24 18 17 17 9 9 14 13 12 15 20 21 21 19 17 15 15 12 10 13 15 17 18 17 16 16 17 19 19 20 22 22 23 24 25 26 26 26 25 24 26 28 27 25 23 22 22 21 20 20 19 18 18 19 20 19
25 23 21 29 37 33 27 26 22 18 18 15 16 18 13 10 14 17 19 22 23 21 18 14 11 11 12 13 16 17 17 18 19 21 23 23 24 24 23 22 21 22 24 24 25 26 24 23 26 28 27 25 24 23 22 21 20 19 18 17 18 18 19
21 21 22 27 34 31 25 25 22 19 19 19 20 19 15 15 20 21 20 20 22 23 22 19 16 13 11 11 14 17 18 19 20 21 22 22 22 20 20 22 22 22 23 23 24 26 23 19 21 25 28 28 26 25 25 23 21 20 19 18 18 17 18
20 21 23 27 33 32 29 24 20 23 26 24 23 23 20 18 23 26 26 22 21 22 25 25 23 19 15 13 14 16 19 19 19 19 20 20 21 21 21 22 22 22 23 24 25 25 22 19 19 21 25 27 28 27 27 25 24 23 21 20 19 19 20
24 22 23 30 34 33 32 26 21 27 33 31 28 27 25 24 25 29 31 29 27 26 27 28 26 22 18 17 15 16 19 21 20 20 21 22 23 24 24 22 21 21 22 25 25 25 24 23 22 22 22 24 27 28 28 26 25 24 22 21 21 21 21
25 23 23 34 37 32 31 30 26 30 35 34 31 30 30 30 29 30 33 34 33 32 33 32 28 20 16 17 17 17 18 20 21 21 22 23 24 24 24 22 22 22 23 26 27 26 26 26 26 25 24 24 26 27 27 26 25 24 22 22 23 23 23
26 25 26 34 36 31 32 34 32 31 34 35 34 34 34 32 31 33 34 35 36 35 35 34 30 22 18 19 21 22 21 19 19 22 24 24 24 24 22 21 23 24 24 26 28 29 28 27 26 26 25 24 25 25 25 26 26 25 24 24 25 26 25
27 29 30 32 32 30 33 36 36 35 35 35 34 35 36 36 36 36 35 34 35 34 32 33 33 30 26 23 22 26 27 23 20 21 22 23 24 25 24 23 23 24 23 24 28 30 28 27 29 30 29 27 26 26 25 26 26 24 23 23 26 28 29
26 27 29 31 32 30 32 37 39 38 37 36 35 37 39 39 39 39 38 35 33 31 30 31 32 33 30 27 24 25 27 26 23 21 21 23 24 24 24 25 25 26 24 22 25 27 27 29 31 31 30 28 28 28 27 26 25 22 20 20 23 27 31
24 23 22 24 25 26 29 33 35 34 34 36 37 39 41 41 41 40 40 39 36 33 31 29 29 29 28 26 24 23 25 26 25 23 22 23 24 23 23 22 22 25 24 22 23 24 25 26 27 27 27 26 27 28 27 26 24 21 20 19 20 23 28
20 21 20 18 17 21 26 29 30 30 33 36 38 39 40 42 43 41 40 41 40 37 35 32 29 28 28 27 25 23 23 24 24 24 25 25 24 24 25 23 22 25 25 23 25 26 25 24 24 25 25 24 25 25 24 23 22 20 18 17 16 17 21
16 19 18 16 16 22 26 28 27 27 31 35 38 39 38 40 44 44 43 42 42 40 39 38 34 32 30 29 28 27 28 28 27 27 28 27 25 23 24 25 26 28 26 24 25 26 24 23 23 25 24 23 24 25 23 22 23 21 18 15 16 16 17
13 17 19 18 19 22 26 27 27 27 28 30 33 34 35 35 40 45 45 44 44 42 41 42 41 37 32 30 29 28 28 31 33 33 32 30 26 23 23 24 24 25 25 24 23 24 24 22 21 23 23 22 22 22 23 23 24 22 19 16 16 16 16
10 13 17 19 20 22 24 27 29 28 27 26 27 29 30 30 34 41 45 46 45 43 42 43 44 41 36 32 33 31 27 25 27 31 34 34 29 27 25 23 22 21 21 21 20 21 24 25 22 21 21 22 24 22 21 22 22 21 19 17 15 15 15
9 11 13 17 19 21 23 25 27 27 27 26 26 27 28 28 29 33 38 42 44 43 41 39 39 41 38 34 35 37 34 29 25 24 27 29 30 31 32 30 26 23 21 22 22 21 22 23 22 20 18 20 23 21 18 18 19 19 17 16 16 17 17
8 9 11 14 18 19 20 21 23 26 27 26 25 25 26 28 28 28 29 33 37 39 37 31 30 35 37 35 34 37 38 37 34 30 27 26 27 30 34 36 34 29 24 24 26 26 27 27 27 26 23 22 22 22 20 18 19 20 18 17 17 19 19
7 9 10 13 16 18 19 19 20 22 23 22 22 25 28 27 27 26 26 28 31 33 33 30 26 27 31 32 33 35 36 36 37 36 33 31 31 31 31 34 36 35 31 27 26 25 25 27 29 31 32 31 31 31 30 29 28 26 24 23 23 23 22
7 9 11 14 16 18 19 19 18 18 19 19 21 25 28 28 27 27 28 29 30 31 31 30 28 26 27 28 30 32 32 31 34 36 33 31 31 32 31 31 33 36 37 36 33 30 27 27 28 30 33 36 37 38 37 35 32 29 27 27 27 28 26
9 10 13 14 15 16 17 17 15 15 17 20 22 24 26 27 27 28 29 29 31 32 32 31 31 29 28 28 28 30 30 28 29 32 33 30 29 29 29 29 30 33 35 37 37 36 35 34 33 33 34 35 38 39 37 36 34 31 29 29 30 31 30
11 12 13 12 12 13 14 15 15 15 16 20 22 23 24 26 26 27 28 28 29 31 31 32 32 31 30 29 27 27 29 30 31 31 31 31 30 30 30 29 29 30 32 34 36 37 38 37 37 37 37 36 37 38 38 37 36 34 33 32 32 32 32
13 13 13 12 10 9 11 14 15 16 16 18 20 22 23 24 26 27 27 27 28 29 29 30 31 31 32 32 30 28 27 29 33 35 35 35 34 34 34 34 33 33 33 34 35 36 38 38 38 39 39 40 40 40 39 39 38 37 36 35 34 34 33
14 14 14 13 11 10 12 13 12 13 15 16 18 20 21 22 25 26 27 27 27 27 28 28 29 30 31 32 33 32 30 29 30 32 34 36 35 34 35 36 37 36 37 37 36 36 38 39 39 40 40 40 41 41 41 40 40 39 39 38 37 37 35
14 15 15 15 13 13 13 13 12 12 14 15 17 19 19 20 22 24 25 26 26 27 27 27 27 27 29 30 32 33 33 33 32 31 31 32 33 33 34 35 36 36 37 38 39 39 39 40 40 41 41 41 41 41 41 40 40 40 40 40 39 39 38
14 15 15 15 14 14 14 15 15 15 15 16 17 18 18 19 20 21 22 23 24 25 26 27 27 26 25 27 29 30 31 33 34 33 32 31 32 33 34 35 36 36 36 37 38 40 41 41 41 42 42 43 43 42 42 41 41 40 40 40 40 40 41
12 13 14 13 13 13 14 15 16 17 17 17 17 17 18 19 19 20 20 21 21 22 23 24 25 25 24 24 25 27 29 31 32 34 34 33 33 34 35 36 37 37 38 38 38 39 41 42 43 43 43 43 44 44 44 43 43 42 40 40 40 41 42
9 10 12 12 11 12 13 14 14 16 17 17 17 18 18 19 20 20 20 20 20 20 21 22 23 23 23 22 22 23 25 28 30 32 33 33 32 32 33 35 36 37 39 40 40 40 41 42 43 44 44 43 43 43 44 44 45 44 43 42 41 41 41
9 10 10 10 10 11 11 12 13 14 15 16 17 17 18 20 21 22 21 21 21 21 21 21 22 22 22 21 20 20 21 25 28 31 33 33 32 30 30 32 33 34 37 39 41 42 42 43 44 45 45 45 44 43 43 44 44 45 45 45 44 43 42
10 10 11 11 11 12 12 13 14 14 14 15 16 16 16 18 20 21 21 21 22 22 22 22 22 22 22 21 20 19 19 20 22 26 30 32 33 32 32 32 32 32 33 35 38 40 41 42 43 44 46 46 46 45 45 45 44 44 45 46 47 46 45
11 12 13 14 14 13 14 15 15 15 14 15 16 15 15 16 17 19 20 20 21 22 22 23 23 23 24 23 22 21 19 19 19 21 24 26 29 30 32 32 33 33 33 33 35 36 38 39 40 42 44 45 47 47 47 47 46 46 45 46 48 49 49
14 14 15 16 16 15 15 15 16 16 16 16 16 16 17 17 18 19 20 21 21 22 23 23 24 25 25 24 24 23 21 21 20 21 22 23 24 26 28 29 31 33 34 35 36 36 37 38 38 39 39 41 43 45 46 46 47 47 46 46 48 49 49
15 16 17 17 18 17 17 17 17 17 18 17 17 18 19 19 20 21 22 23 23 23 24 24 25 26 26 26 25 25 24 23 22 22 22 23 24 24 25 25 27 29 31 33 35 37 38 38 39 40 39 39 40 41 42 43 44 45 45 45 46 48 49